This is the latest recevied weather packets stored in our database for station/object ZL1CTS-13. If no packets are shown the sender has not sent any weather packets the latest 10 day(s).
| Time | Temp. | Humidity | Pressure | Rain* | Wind** | Luminosity | Snow |
|---|---|---|---|---|---|---|---|
| 1777608004 | 21.11° C | 42% | 1025.5 hPa | 6.1 mm | - | - | - |
| 1777607404 | 21.11° C | 39% | 1025.5 hPa | 11.68 mm | - | - | - |
| 1777606804 | 21.11° C | 41% | 1025.6 hPa | 11.68 mm | - | - | - |
| 1777606204 | 21.67° C | 42% | 1025.4 hPa | 11.68 mm | - | - | - |
| 1777605604 | 21.11° C | 42% | 1025.5 hPa | 11.68 mm | - | - | - |
| 1777605004 | 20.56° C | 44% | 1025.6 hPa | 11.43 mm | - | - | - |
| 1777604404 | 20.56° C | 46% | 1025.7 hPa | 5.59 mm | - | - | - |
| 1777603804 | 20.56° C | 45% | 1025.7 hPa | 0 mm | - | - | - |
| 1777603204 | 20.56° C | 43% | 1025.8 hPa | 0 mm | - | - | - |
| 1777602604 | 20.56° C | 42% | 1025.8 hPa | 0 mm | - | - | - |
| 1777602004 | 20.56° C | 43% | 1025.7 hPa | 0 mm | - | - | - |
| 1777601404 | 20.56° C | 42% | 1025.9 hPa | 0 mm | - | - | - |
| 1777600804 | 20° C | 44% | 1026 hPa | 0 mm | - | - | - |
| 1777600204 | 20° C | 45% | 1026.1 hPa | 0 mm | - | - | - |
| 1777599604 | 20° C | 44% | 1025.9 hPa | 0 mm | - | - | - |
| 1777599003 | 19.44° C | 45% | 1025.9 hPa | 0 mm | - | - | - |
| 1777598407 | 19.44° C | 44% | 1026 hPa | 0 mm | - | - | - |
| 1777597806 | 19.44° C | 42% | 1026 hPa | 0 mm | - | - | - |
| 1777597205 | 20° C | 44% | 1026.2 hPa | 0 mm | - | - | - |
| 1777596604 | 19.44° C | 46% | 1026.3 hPa | 0 mm | - | - | - |
| 1777596004 | 19.44° C | 44% | 1026.5 hPa | 0 mm | - | - | - |
| 1777595404 | 20° C | 46% | 1026.6 hPa | 0 mm | - | - | - |
| 1777594804 | 19.44° C | 47% | 1026.8 hPa | 0 mm | - | - | - |
| 1777594204 | 19.44° C | 48% | 1026.8 hPa | 0 mm | - | - | - |
| 1777593604 | 19.44° C | 48% | 1026.7 hPa | 0 mm | - | - | - |
* Rain latest hour (hover to see other rain measurements)
** Current wind speed in m/s (hover to see current wind gust speed)